Overview Statistics Trail Chart Weather Telemetry Raw packets
 

This is the latest recevied weather packets stored in our database for station/object KQ4WWD. If no packets are shown the sender has not sent any weather packets the latest 10 day(s).

<< 101 102 103 104 105 106 107 >>
Time Temp. Humidity Pressure Rain* Wind** Luminosity Snow
1787845375 31.11° C 74% 1016.7 hPa 0 mm - 702 W/m² -
1787845072 32.22° C 73% 1016.6 hPa 0 mm - 196 W/m² -
1787844768 31.67° C 75% 1016.4 hPa 0 mm - 777 W/m² -
1787844466 31.11° C 76% 1016.7 hPa 0 mm - 183 W/m² -
1787844161 31.11° C 77% 1016.7 hPa 0 mm - 744 W/m² -
1787843861 31.11° C 77% 1016.6 hPa 0 mm - 726 W/m² -
1787843556 31.11° C 78% 1016.6 hPa 0 mm - 721 W/m² -
1787843252 30.56° C 79% 1016.5 hPa 0 mm - 755 W/m² -
1787842948 30.56° C 78% 1016.5 hPa 0 mm - 743 W/m² -
1787842647 31.11° C 76% 1016.7 hPa 0 mm - 703 W/m² -
1787842342 30.56° C 80% 1016.9 hPa 0 mm - 677 W/m² -
1787842042 30° C 79% 1016.8 hPa 0 mm - 747 W/m² -
1787841738 30.56° C 80% 1016.8 hPa 0 mm - 703 W/m² -
1787841433 30° C 79% 1016.8 hPa 0 mm - 656 W/m² -
1787841127 30° C 79% 1016.8 hPa 0 mm - 602 W/m² -
1787840824 29.44° C 80% 1016.8 hPa 0 mm - 568 W/m² -
1787840517 29.44° C 81% 1016.8 hPa 0 mm - 540 W/m² -
1787840213 29.44° C 80% 1016.5 hPa 0 mm - 528 W/m² -
1787839912 28.89° C 81% 1016.8 hPa 0 mm - 538 W/m² -
1787839608 29.44° C 80% 1016.7 hPa 0 mm - 525 W/m² -
1787839308 29.44° C 80% 1016.6 hPa 0 mm - 502 W/m² -
1787839007 28.89° C 80% 1016.5 hPa 0 mm - 493 W/m² -
1787838706 28.89° C 80% 1016.5 hPa 0 mm - 469 W/m² -
1787838405 28.89° C 81% 1016.6 hPa 0 mm - 409 W/m² -
1787838104 28.33° C 81% 1016.6 hPa 0 mm - 377 W/m² -

* Rain latest hour (hover to see other rain measurements)
** Current wind speed in m/s (hover to see current wind gust speed)